Regional Weather Roundup
Issued by NWS

Home | Current Version | Previous Version | Graphics & Text | Print | Product List | Glossary On
Versions: 1 2 3 4 5 6 7 8 9 10 11 12 13 14 15 16 17 18 19 20 21 22 23 24 25 26 27 28 29 30 31 32 33 34 35 36 37 38 39 40 41 42 43 44 45 46 47 48 49 50
000
ASUS43 KDMX 220706
RWRIA

WEATHER ROUNDUP FOR IOWA
NATIONAL WEATHER SERVICE DES MOINES IA
100 AM CST SUN JAN 22 2017

NOTE: "FAIR" INDICATES FEW OR NO CLOUDS BELOW 12,000 FEET WITH NO
SIGNIFICANT WEATHER AND/OR OBSTRUCTIONS TO VISIBILITY.

* - THESE STATIONS ARE NOT NWS STATIONS...THUS NOT UNDER NWS
QUALITY CONTROL.  THEY ALSO DO NOT REPORT WEATHER SUCH
AS PRECIPITATION OR FOG.

IAZ001>003-012>014-020>022-031>034-043>046-220800-
   NORTHWEST IOWA

CITY           SKY/WX    TMP DP  RH WIND       PRES   REMARKS
CARROLL *      CLEAR     30  30 100 NW6       29.57S WCI  24
CHEROKEE *     CLOUDY    32  31  96 NW3       29.59S
DENISON *      CLEAR     30  30 100 N7        29.56F WCI  23
LE MARS *      CLOUDY    32  30  93 NW13      29.62R WCI  22
ORANGE CITY *  CLOUDY    32  30  93 NW8       29.59R WCI  25
SHELDON *      CLOUDY    32  32 100 NW10      29.57R WCI  24
SIOUX CITY     MOCLDY    30  28  92 W5        29.63R FOG     WCI  25
SPENCER          N/A    N/A N/A N/A MISG      29.57S
STORM LAKE *   CLOUDY    32  30  93 NW12      29.56F WCI  23
$$

IAZ055>058-069>071-079>083-090>094-220800-
   SOUTHWEST IOWA

CITY           SKY/WX    TMP DP  RH WIND       PRES   REMARKS
ATLANTIC *     FOG       28  28 100 N3        29.58R VSB<1/4
AUDUBON *      CLEAR     30  28  93 CALM      29.58R FOG
CLARINDA *     FOG       30  30 100 CALM      29.59R VSB 1/4
COUNCIL BLFS * MOCLDY    32  32 100 N9        29.58R FOG     WCI  24
CRESTON *      FOG       34  34 100 W7        29.57R VSB 1/4 WCI  28
HARLAN  *      CLEAR     32  32 100 N3        29.61R
LAMONI         FOG       33  32  96 N6        29.55S VSB 1/4 WCI  28
RED OAK *      FOG       28  28 100 CALM      29.57S VSB 3/4
SHENANDOAH *   CLEAR     30  30 100 CALM      29.58R FOG
$$

IAZ047>049-059>061-072>074-084-220800-
   CENTRAL IOWA

CITY           SKY/WX    TMP DP  RH WIND       PRES   REMARKS
AMES           CLOUDY    34  34 100 N5        29.57S FOG     WCI  30
ANKENY *       FOG       28  28 100 CALM      29.57S VSB<1/4
BOONE *        FOG       34  34 100 NW6       29.55S VSB<1/4 WCI  29
CHARITON *     FOG       28  28 100 CALM      29.55S VSB 1/4
DES MOINES     FOG       30  29  96 CALM      29.56S VSB 1/4
GRINNELL*      SNOW      31  31  99 CALM      29.57S VSB<1/4
KNOXVILLE *    FOG       28  28 100 CALM      29.55S VSB<1/4
MARSHALLTOWN   CLOUDY    33  33 100 CALM      29.56S FOG
NEWTON *       FOG       30  30 100 CALM      29.55F VSB<1/4
PELLA *        FOG       32  32  99 CALM      29.58R VSB 1/4
PERRY *        MOCLDY    33  33  99 N3        29.57S FOG
$$

IAZ004>006-015-016-023>025-035-036-220800-
   NORTH CENTRAL IOWA

CITY           SKY/WX    TMP DP  RH WIND       PRES   REMARKS
ALGONA *       CLOUDY    32  32 100 W6        29.56S FOG     WCI  26
CLARION *      CLOUDY    32  32 100 NW8       29.55F WCI  25
ESTHERVILLE    CLOUDY    32  32 100 W12       29.55S FOG     WCI  23
FORT DODGE *   CLOUDY    32  28  86 W5        29.57S WCI  27
MASON CITY     CLOUDY    32  30  92 W7        29.56S WCI  26
FOREST CITY *  CLOUDY    32  32 100 W9        29.54F FOG     WCI  24
WEBSTER CITY * PTCLDY    32 N/A N/A NW7       29.55S WCI  26
IOWA FALLS *   CLOUDY    34  33  98 NW8       29.57S FOG     WCI  27
$$

IAZ007>011-017>019-026>030-037>042-050>054-066-220800-
   NORTHEAST IOWA

CITY           SKY/WX    TMP DP  RH WIND       PRES   REMARKS
CEDAR RAPIDS   FOG       34  34 100 CALM      29.56F VSB 3/4
CHARLES CITY * CLOUDY    34  34 100 W6        29.56S FOG     WCI  29
CLINTON *      PTCLDY    40  38  93 CALM      29.59S
DECORAH *      CLOUDY    36  36 100 CALM      29.55R FOG
DUBUQUE        FOG       33  33 100 SW3       29.57S VSB<1/4
MONTICELLO *   FOG       36  36 100 CALM      29.57S VSB 1/4
OELWEIN *      CLOUDY    34  34 100 CALM      29.56S FOG
WATERLOO       FOG       31  30  96 CALM      29.56S VSB 1/4
$$

IAZ064-065-067-068-078-220800-
   EAST CENTRAL IOWA

CITY           SKY/WX    TMP DP  RH WIND       PRES   REMARKS
DAVENPORT      PTCLDY    36  35  96 CALM      29.58F
IOWA CITY      FOG       33  31  92 CALM      29.59S VSB 1/4
MUSCATINE *    FOG       32  32 100 CALM      29.59R VSB 1/4
QUAD CITIES    PTCLDY    39  35  86 CALM      29.58S
$$

IAZ062-063-075>077-085>089-095>099-220800-
   SOUTHEAST IOWA

CITY           SKY/WX    TMP DP  RH WIND       PRES   REMARKS
BURLINGTON     FOG       36  36 100 CALM      29.58S VSB 1/2
FAIRFIELD *    FOG       30  30 100 CALM      29.58R VSB 1/4
FORT MADISON *   N/A     36  36 100 E3        29.59S FOG
KEOKUK *       CLOUDY    37 N/A N/A E3        29.57F FOG
OSKALOOSA *    FOG       30  30 100 S5        29.57R VSB 1/4 WCI  25
CENTERVILLE *  FOG       28  28 100 CALM      29.58R VSB 1/2
OTTUMWA        FOG       29  27  92 CALM      29.56R VSB 1/4
WASHINGTON *   FOG       30  30 100 SE3       29.59R VSB<1/4
$$

ABBREVIATIONS USED IN REMARKS
   TC - TEMPERATURES IN CELSIUS
  WCI - WIND CHILL INDEX
   HX - HEAT INDEX
  VSB - VISIBILITY
$$





USA.gov is the U.S. government's official web portal to all federal, state and local government web resources and services.